Location: Ward Pound Ridge Reservation
(41.2500°N, 73.6000°W)
Time: 19:27:57
(UTC-05:00)

OTV 5 (USA 277) - Pass Details

Date: 11 October 2017
Orbit: 404 x 417 km, 43.0° (Epoch: 07 September)

Event Time Altitude Azimuth Distance (km) Brightness Sun altitude
Rises 20:29:10 0° 261° (W) 2,351 ? -25.1°
Reaches altitude 10° 20:31:17 10° 264° (W) 1,489 ? -25.5°
Enters shadow 20:33:03 28° 269° (W) 806 ? -25.8°
